GW4153 Weather Reports


time (UTC)temp
C
wind
direction
speed
KPH
gust
KPH
rain 1hr
cm
rain 24hr
cm
rain mn
cm
humidity
%
barometer
mb
20260507130023 17 260 8.0 14.5 0.00 0.00 0.00 78 1018.4
20260507125507 18 269 9.7 14.5 0.00 0.00 0.00 78 1018.4
20260507125006 18 254 8.0 14.5 0.00 0.00 0.00 78 1018.4
20260507124529 18 252 9.7 14.5 0.00 0.00 0.00 78 1018.4
20260507124006 18 265 9.7 14.5 0.00 0.00 0.00 78 1018.4
20260507123511 18 248 9.7 14.5 0.00 0.00 0.00 78 1018.5
20260507123024 18 251 9.7 16.1 0.00 0.00 0.00 77 1018.5
20260507122505 18 259 11.3 16.1 0.00 0.00 0.00 76 1018.6
20260507122003 18 253 9.7 16.1 0.00 0.00 0.00 77 1018.6
20260507121503 18 249 9.7 16.1 0.00 0.00 0.00 78 1018.6
20260507121003 18 275 8.0 12.9 0.00 0.00 0.00 79 1018.6
20260507120505 18 255 8.0 12.9 0.00 0.00 0.00 80 1018.7
20260507120008 17 269 8.0 14.5 0.00 0.00 0.00 80 1018.8
20260507115504 17 250 8.0 14.5 0.00 0.00 0.00 79 1018.8
20260507115007 17 258 8.0 12.9 0.00 0.00 0.00 79 1018.9
20260507114512 17 264 6.4 12.9 0.00 0.00 0.00 79 1018.9
20260507114006 16 269 8.0 12.9 0.00 0.00 0.00 79 1019.0
20260507113508 16 243 8.0 14.5 0.00 0.00 0.00 80 1019.1
20260507113020 16 259 9.7 14.5 0.00 0.00 0.00 80 1019.2
20260507112506 16 250 9.7 14.5 0.00 0.00 0.00 80 1019.2
20260507112011 16 234 9.7 12.9 0.00 0.00 0.00 81 1019.3
20260507111523 16 241 9.7 12.9 0.00 0.00 0.00 81 1019.3
20260507111009 16 253 8.0 12.9 0.00 0.00 0.00 82 1019.5
20260507110507 16 244 9.7 12.9 0.00 0.00 0.00 82 1019.5
20260507110011 16 243 9.7 12.9 0.00 0.00 0.00 83 1019.5
20260507105503 16 238 8.0 11.3 0.00 0.00 0.00 83 1019.5
20260507105003 16 240 8.0 12.9 0.00 0.00 0.00 83 1019.5
20260507104509 16 229 8.0 12.9 0.00 0.00 0.00 83 1019.5
20260507104004 16 250 8.0 12.9 0.00 0.00 0.00 84 1019.6
20260507103506 17 249 8.0 11.3 0.00 0.00 0.00 84 1019.7
20260507103015 17 244 8.0 12.9 0.00 0.00 0.00 84 1019.7
20260507102506 17 229 8.0 12.9 0.00 0.00 0.00 84 1019.7
20260507102010 17 234 8.0 12.9 0.00 0.00 0.00 84 1019.7
20260507101516 17 246 8.0 12.9 0.00 0.00 0.00 84 1019.7
20260507101008 17 256 8.0 12.9 0.00 0.00 0.00 84 1019.8
20260507100506 17 248 8.0 12.9 0.00 0.00 0.00 84 1019.9
20260507100026 17 240 8.0 12.9 0.00 0.00 0.00 85 1019.9
20260507095509 17 243 8.0 12.9 0.00 0.00 0.00 85 1019.9
20260507095007 17 233 6.4 11.3 0.00 0.00 0.00 85 1019.9
20260507094527 17 240 8.0 11.3 0.00 0.00 0.00 85 1019.9
20260507094002 17 240 6.4 11.3 0.00 0.00 0.00 85 1019.9
20260507093516 17 236 6.4 11.3 0.00 0.00 0.00 85 1020.0
20260507093022 17 251 6.4 11.3 0.00 0.00 0.00 85 1020.0
20260507092504 17 248 6.4 11.3 0.00 0.00 0.00 86 1020.0
20260507092006 17 252 6.4 11.3 0.00 0.00 0.00 85 1020.0
20260507091531 17 234 6.4 11.3 0.00 0.00 0.00 85 1020.1
20260507091011 17 245 6.4 11.3 0.00 0.00 0.00 84 1020.1
20260507090510 17 257 6.4 11.3 0.00 0.00 0.00 85 1020.0
20260507090019 17 257 4.8 9.7 0.00 0.00 0.00 85 1020.1
20260507085506 17 243 6.4 11.3 0.00 0.00 0.00 84 1020.1
20260507085010 17 250 6.4 11.3 0.00 0.00 0.00 83 1020.1
20260507084529 17 249 6.4 12.9 0.00 0.00 0.00 82 1020.1
20260507084007 17 250 8.0 12.9 0.00 0.00 0.00 82 1020.1
20260507083511 17 240 6.4 12.9 0.00 0.00 0.00 82 1020.2
20260507083029 17 250 8.0 12.9 0.00 0.00 0.00 83 1020.1
20260507082509 17 242 6.4 12.9 0.00 0.00 0.00 84 1020.1
20260507082007 17 250 6.4 12.9 0.00 0.00 0.00 85 1020.1
20260507081510 17 238 8.0 12.9 0.00 0.00 0.00 86 1020.2
20260507081004 17 238 8.0 12.9 0.00 0.00 0.00 86 1020.1
20260507080504 17 252 8.0 12.9 0.00 0.00 0.00 86 1020.1
20260507080018 17 250 6.4 11.3 0.00 0.00 0.00 85 1020.1
20260507075508 17 254 6.4 11.3 0.00 0.00 0.00 85 1020.2
20260507075009 17 244 8.0 11.3 0.00 0.00 0.00 84 1020.2
20260507074520 17 242 8.0 11.3 0.00 0.00 0.00 84 1020.1
20260507074007 17 246 6.4 11.3 0.00 0.00 0.00 84 1020.1
20260507073509 17 239 6.4 11.3 0.00 0.00 0.00 85 1020.0
20260507073028 17 254 4.8 8.0 0.00 0.00 0.00 86 1019.9
20260507072508 18 246 4.8 6.4 0.00 0.00 0.00 86 1019.9
20260507072010 18 242 4.8 6.4 0.00 0.00 0.00 85 1019.8
20260507071528 18 240 4.8 6.4 0.00 0.00 0.00 85 1019.8
20260507071005 18 247 4.8 6.4 0.00 0.00 0.00 85 1019.7
20260507070507 18 243 3.2 6.4 0.00 0.00 0.00 84 1019.6
20260507070013 18 252 1.6 4.8 0.00 0.00 0.00 84 1019.5
20260507065504 18 252 1.6 4.8 0.00 0.00 0.00 82 1019.3
20260507065009 18 252 1.6 4.8 0.00 0.00 0.00 82 1019.3
20260507064503 18 231 1.6 3.2 0.00 0.00 0.00 86 1019.1
20260507064003 18 231 0.0 6.4 0.00 0.00 0.00 88 1019.0
20260507063502 18 231 3.2 6.4 0.00 0.00 0.00 88 1018.9
20260507063008 18 250 1.6 8.0 0.00 0.00 0.00 89 1019.0
20260507062505 18 240 4.8 8.0 0.00 0.00 0.00 88 1018.9
20260507062002 18 227 3.2 6.4 0.00 0.00 0.00 88 1018.7
20260507061506 19 225 1.6 6.4 0.00 0.00 0.00 88 1018.8
20260507061002 19 211 3.2 6.4 0.00 0.00 0.00 88 1018.8
20260507060502 19 221 1.6 6.4 0.00 0.00 0.00 88 1018.8
20260507060013 20 221 3.2 6.4 0.00 0.00 0.00 89 1018.7
20260507055506 20 198 1.6 3.2 0.00 0.00 0.00 89 1018.8
20260507055007 20 172 0.0 3.2 0.00 0.00 0.00 89 1018.7
20260507054514 20 172 0.0 3.2 0.00 0.00 0.00 89 1018.7
20260507054005 20 172 0.0 3.2 0.00 0.00 0.00 89 1018.5
20260507053513 20 172 0.0 1.6 0.00 0.00 0.00 89 1018.5
20260507053021 20 172 0.0 1.6 0.00 0.00 0.00 89 1018.4
20260507052503 20 172 0.0 3.2 0.00 0.00 0.00 89 1018.4
20260507052004 20 172 1.6 3.2 0.00 0.00 0.00 89 1018.3
20260507051505 21 172 0.0 1.6 0.00 0.00 0.00 88 1018.2
20260507051002 21 172 0.0 3.2 0.00 0.00 0.00 88 1018.2
20260507050502 21 172 0.0 3.2 0.00 0.00 0.00 87 1018.1
20260507050010 21 172 0.0 3.2 0.00 0.00 0.00 87 1018.1
20260507045503 21 172 0.0 3.2 0.00 0.00 0.00 87 1018.0
20260507045002 21 172 1.6 3.2 0.00 0.00 0.00 87 1018.0
20260507044512 21 172 0.0 3.2 0.00 0.00 0.00 87 1018.0
20260507044007 21 95 1.6 3.2 0.00 0.00 0.00 87 1018.0
20260507043506 21 95 0.0 3.2 0.00 0.00 0.00 87 1017.9
20260507043015 21 95 0.0 4.8 0.00 0.00 0.00 87 1017.9
20260507042506 21 95 1.6 4.8 0.00 0.00 0.00 87 1017.8
20260507042010 22 129 3.2 4.8 0.00 0.00 0.00 86 1017.8
20260507041520 22 112 1.6 6.4 0.00 0.00 0.00 86 1017.8
20260507041009 22 106 3.2 6.4 0.00 0.00 0.00 86 1017.7
20260507040503 22 103 1.6 9.7 0.00 0.00 0.00 86 1017.6
20260507040004 22 115 4.8 9.7 0.00 0.00 0.00 85 1017.6
20260507035502 22 137 4.8 9.7 0.00 0.00 0.00 85 1017.6
20260507035003 22 127 3.2 9.7 0.00 0.00 0.00 85 1017.6
20260507034520 22 81 4.8 9.7 0.00 0.00 0.00 85 1017.5
20260507034004 22 88 4.8 9.7 0.00 0.00 0.00 85 1017.5
20260507033514 22 98 3.2 9.7 0.00 0.00 0.00 85 1017.4
20260507033013 22 76 3.2 11.3 0.00 0.00 0.00 85 1017.3
20260507032507 22 120 4.8 11.3 0.00 0.00 0.00 85 1017.3
20260507032013 22 61 1.6 12.9 0.00 0.00 0.00 85 1017.4
20260507031516 22 96 6.4 12.9 0.00 0.00 0.00 85 1017.4
20260507031006 22 138 3.2 11.3 0.00 0.00 0.00 85 1017.3
20260507030512 22 106 4.8 12.9 0.00 0.00 0.00 85 1017.3
20260507030023 22 72 4.8 12.9 0.00 0.00 0.00 85 1017.2
20260507025506 22 62 3.2 9.7 0.00 0.00 0.00 86 1017.2
20260507025014 22 108 4.8 9.7 0.00 0.00 0.00 85 1017.1
20260507024504 22 78 4.8 11.3 0.00 0.00 0.00 85 1017.0
20260507024004 22 109 4.8 11.3 0.00 0.00 0.00 85 1017.0
20260507023502 22 75 1.6 9.7 0.00 0.00 0.00 86 1017.1
20260507023008 22 109 4.8 11.3 0.00 0.00 0.00 85 1017.1
20260507022504 22 84 4.8 11.3 0.00 0.00 0.00 85 1017.0
20260507022006 22 85 6.4 11.3 0.00 0.00 0.00 85 1017.1
20260507021512 22 77 4.8 12.9 0.00 0.00 0.00 84 1017.0
20260507021009 22 96 6.4 12.9 0.00 0.00 0.00 84 1017.1
20260507020507 23 96 4.8 11.3 0.00 0.00 0.00 84 1017.0
20260507020029 23 86 6.4 11.3 0.00 0.00 0.00 83 1017.0
20260507015506 23 81 6.4 12.9 0.00 0.00 0.00 83 1017.0
20260507015006 23 98 6.4 12.9 0.00 0.00 0.00 83 1017.0
20260507014522 23 93 6.4 11.3 0.00 0.00 0.00 82 1017.0
20260507014006 23 82 4.8 8.0 0.00 0.00 0.00 81 1016.9
20260507013511 23 115 0.0 8.0 0.00 0.00 0.00 80 1016.9
20260507013044 23 68 3.2 11.3 0.00 0.00 0.00 81 1016.8
20260507012502 23 69 1.6 11.3 0.00 0.00 0.00 78 1016.7
20260507012004 24 93 4.8 9.7 0.00 0.00 0.00 79 1016.9
20260507011509 24 138 1.6 9.7 0.00 0.00 0.00 78 1017.0
20260507011003 24 47 3.2 8.0 0.00 0.00 0.00 79 1016.9
20260507010504 24 58 4.8 9.7 0.00 0.00 0.00 80 1017.1
20260507010014 24 74 3.2 9.7 0.00 0.00 0.00 79 1017.0
20260507005506 24 98 3.2 12.9 0.00 0.00 0.00 78 1017.0
20260507005006 25 79 6.4 12.9 0.00 0.00 0.00 78 1017.0
20260507004521 25 105 4.8 12.9 0.00 0.00 0.00 73 1017.1
20260507004007 25 112 6.4 12.9 0.00 0.00 0.00 68 1017.1
20260507003515 25 88 6.4 17.7 0.00 0.00 0.00 69 1017.2
20260507003023 26 85 6.4 17.7 0.00 0.00 0.00 74 1017.1
20260507002507 26 50 6.4 12.9 0.00 0.00 0.00 67 1017.1
20260507002012 26 29 3.2 12.9 0.00 0.00 0.00 53 1017.1
20260507001531 26 58 4.8 9.7 0.00 0.00 0.00 61 1017.2
20260507001012 25 19 0.0 8.0 0.00 0.00 0.00 58 1017.2
20260507000504 25 281 0.0 8.0 0.00 0.00 0.00 61 1017.3
20260507000010 25 346 1.6 9.7 0.00 0.00 0.00 64 1017.2
20260506235505 25 5 1.6 9.7 0.00 0.00 0.00 68 1017.3
20260506235004 25 51 6.4 9.7 0.00 0.00 0.00 75 1017.4
20260506234522 25 119 3.2 12.9 0.00 0.00 0.00 75 1017.6
20260506234007 25 59 4.8 12.9 0.00 0.00 0.00 74 1017.6
20260506233507 25 44 4.8 12.9 0.00 0.00 0.00 74 1017.7
20260506233022 25 91 8.0 12.9 0.00 0.00 0.00 70 1017.7
20260506232506 25 71 0.0 11.3 0.00 0.00 0.00 72 1017.8
20260506232008 25 67 3.2 9.7 0.00 0.00 0.00 73 1017.9
20260506231528 25 120 3.2 9.7 0.00 0.00 0.00 74 1017.9
20260506231008 25 90 3.2 12.9 0.00 0.00 0.00 79 1017.9
20260506230511 24 88 3.2 12.9 0.00 0.00 0.00 77 1018.0
20260506230028 25 100 8.0 12.9 0.00 0.00 0.00 79 1017.9
20260506225511 24 67 3.2 12.9 0.00 0.00 0.00 77 1017.8
20260506225011 24 116 8.0 12.9 0.00 0.00 0.00 76 1017.9
20260506224511 24 84 6.4 12.9 0.00 0.00 0.00 78 1018.0
20260506224006 24 95 4.8 11.3 0.00 0.00 0.00 77 1017.9
20260506223505 24 90 4.8 14.5 0.00 0.00 0.00 74 1018.0
20260506223016 24 119 8.0 14.5 0.00 0.00 0.00 78 1018.0
20260506222507 24 134 6.4 14.5 0.00 0.00 0.00 79 1018.0
20260506222013 23 109 4.8 14.5 0.00 0.00 0.00 80 1018.2
20260506221503 23 92 3.2 16.1 0.00 0.00 0.00 81 1018.2
20260506221004 23 71 6.4 16.1 0.00 0.00 0.00 81 1018.2
20260506220504 23 110 6.4 16.1 0.00 0.00 0.00 81 1018.4
20260506220007 23 80 6.4 16.1 0.00 0.00 0.00 81 1018.5
20260506215503 23 75 4.8 16.1 0.00 0.00 0.00 80 1018.5
20260506215003 23 123 8.0 16.1 0.00 0.00 0.00 80 1018.7
20260506214510 23 51 8.0 17.7 0.00 0.00 0.00 80 1018.7
20260506214004 23 115 9.7 17.7 0.00 0.00 0.00 79 1018.8
20260506213506 23 128 9.7 16.1 0.00 0.00 0.00 82 1018.7
20260506213013 23 94 8.0 14.5 0.00 0.00 0.00 80 1018.7
20260506212506 23 82 6.4 16.1 0.00 0.00 0.00 82 1018.6
20260506212007 23 82 9.7 16.1 0.00 0.00 0.00 82 1018.6
20260506211524 23 84 9.7 14.5 0.00 0.00 0.00 82 1018.7
20260506211003 23 55 6.4 14.5 0.00 0.00 0.00 82 1018.7
20260506210503 23 99 8.0 16.1 0.00 0.00 0.00 82 1018.8
20260506210010 23 138 9.7 16.1 0.00 0.00 0.00 80 1018.7
20260506205504 23 87 8.0 16.1 0.00 0.00 0.00 80 1018.8
20260506205001 24 115 8.0 16.1 0.00 0.00 0.00 81 1018.8
20260506204506 24 88 6.4 17.7 0.00 0.00 0.00 80 1018.8
20260506204002 24 92 8.0 17.7 0.00 0.00 0.00 77 1018.8
20260506203505 24 56 6.4 12.9 0.00 0.00 0.00 80 1018.9
20260506203007 24 16 4.8 14.5 0.00 0.00 0.00 80 1018.8
20260506202509 24 80 6.4 14.5 0.00 0.00 0.00 81 1018.9
20260506202007 24 63 4.8 12.9 0.00 0.00 0.00 80 1018.8
20260506201516 24 77 4.8 14.5 0.00 0.00 0.00 78 1018.7
20260506201011 24 52 6.4 14.5 0.00 0.00 0.00 78 1018.8
20260506200508 24 74 6.4 11.3 0.00 0.00 0.00 77 1018.9
20260506200034 23 80 4.8 9.7 0.00 0.00 0.00 78 1018.8
20260506195510 23 31 4.8 9.7 0.00 0.00 0.00 77 1018.7
20260506195003 23 10 1.6 11.3 0.00 0.00 0.00 77 1018.7
20260506194503 23 65 3.2 11.3 0.00 0.00 0.00 80 1018.8
20260506194006 23 31 4.8 9.7 0.00 0.00 0.00 81 1018.8
20260506193502 23 326 3.2 11.3 0.00 0.00 0.00 79 1018.8
20260506193007 24 352 4.8 14.5 0.00 0.00 0.00 80 1018.8
20260506192502 24 351 4.8 14.5 0.00 0.00 0.00 79 1018.8
20260506192006 24 76 4.8 12.9 0.00 0.00 0.00 78 1018.7
20260506191510 24 41 4.8 11.3 0.00 0.00 0.00 76 1018.7
20260506191007 24 62 4.8 12.9 0.00 0.00 0.00 77 1018.6
20260506190507 24 59 4.8 12.9 0.00 0.00 0.00 72 1018.6
20260506190019 24 90 4.8 12.9 0.00 0.00 0.00 72 1018.6
20260506185511 24 113 8.0 16.1 0.00 0.00 0.00 72 1018.6
20260506185006 24 115 4.8 16.1 0.00 0.00 0.00 66 1018.6
20260506184521 24 137 4.8 14.5 0.00 0.00 0.00 68 1018.6
20260506184010 23 123 4.8 14.5 0.00 0.00 0.00 69 1018.7
20260506183508 23 143 4.8 14.5 0.00 0.00 0.00 69 1018.6
20260506183005 23 141 6.4 12.9 0.00 0.00 0.00 68 1018.5
20260506182503 23 146 4.8 12.9 0.00 0.00 0.00 69 1018.4
20260506182005 23 165 4.8 8.0 0.00 0.00 0.00 72 1018.3
20260506181512 23 152 1.6 8.0 0.00 0.00 0.00 73 1018.3
20260506181006 23 187 1.6 6.4 0.00 0.00 0.00 77 1018.3
20260506180506 22 155 0.0 1.6 0.00 0.00 0.00 74 1018.2
20260506180017 22 155 0.0 3.2 0.00 0.00 0.00 75 1018.2
20260506175507 22 155 0.0 4.8 0.00 0.00 0.00 73 1018.3
20260506175007 22 155 1.6 8.0 0.00 0.00 0.00 74 1018.3
20260506174518 22 105 3.2 8.0 0.00 0.00 0.00 76 1018.2
20260506174007 21 123 3.2 6.4 0.00 0.00 0.00 79 1018.1
20260506173506 21 226 0.0 6.4 0.00 0.00 0.00 79 1018.1
20260506173024 21 210 0.0 6.4 0.00 0.00 0.00 80 1018.0
20260506172509 21 222 1.6 8.0 0.00 0.00 0.00 79 1017.9
20260506172012 20 227 3.2 8.0 0.00 0.00 0.00 79 1017.8
20260506171527 20 227 3.2 11.3 0.00 0.00 0.00 80 1017.7
20260506171004 20 231 4.8 11.3 0.00 0.00 0.00 80 1017.6
20260506170503 20 229 3.2 11.3 0.00 0.00 0.00 80 1017.6
20260506170011 20 227 3.2 11.3 0.00 0.00 0.00 80 1017.6
20260506165506 19 232 6.4 12.9 0.00 0.00 0.00 80 1017.5
20260506165004 19 224 6.4 12.9 0.00 0.00 0.00 81 1017.5
20260506164515 18 221 6.4 14.5 0.00 0.00 0.00 81 1017.5
20260506164008 18 236 9.7 14.5 0.00 0.00 0.00 81 1017.5
20260506163507 18 219 9.7 14.5 0.00 0.00 0.00 81 1017.4
20260506163023 18 225 4.8 14.5 0.00 0.00 0.00 81 1017.3
20260506162508 18 232 8.0 14.5 0.00 0.00 0.00 81 1017.2
20260506162007 18 229 8.0 14.5 0.00 0.00 0.00 81 1017.1
20260506161524 18 248 9.7 14.5 0.00 0.00 0.00 81 1017.1
20260506161008 18 241 8.0 14.5 0.00 0.00 0.00 81 1017.0
20260506160510 18 234 8.0 14.5 0.00 0.00 0.00 81 1016.9
20260506160028 18 223 6.4 16.1 0.00 0.00 0.00 81 1016.9
20260506155514 18 230 8.0 16.1 0.00 0.00 0.00 81 1016.7
20260506155008 18 242 9.7 14.5 0.00 0.00 0.00 81 1016.6
20260506154509 18 234 8.0 16.1 0.00 0.00 0.00 81 1016.6
20260506154008 18 242 9.7 16.1 0.00 0.00 0.00 82 1016.6
20260506153512 18 230 9.7 14.5 0.00 0.00 0.00 82 1016.6
20260506153020 18 240 8.0 17.7 0.00 0.00 0.00 82 1016.6
20260506152505 18 239 9.7 17.7 0.00 0.00 0.00 82 1016.6
20260506152012 18 223 9.7 17.7 0.00 0.00 0.00 82 1016.6
20260506151519 18 225 9.7 17.7 0.00 0.00 0.00 83 1016.4
20260506151008 18 248 9.7 17.7 0.00 0.00 0.00 83 1016.4
20260506150509 18 232 9.7 17.7 0.00 0.00 0.00 83 1016.4
20260506150024 18 236 8.0 14.5 0.00 0.00 0.00 83 1016.3
20260506145510 18 213 6.4 14.5 0.00 0.00 0.00 84 1016.4
20260506145012 18 239 8.0 14.5 0.00 0.00 0.00 84 1016.3
20260506144531 18 217 6.4 14.5 0.00 0.00 0.00 85 1016.3
20260506144012 18 244 8.0 12.9 0.00 0.03 0.00 85 1016.3
20260506143516 18 203 6.4 12.9 0.00 0.03 0.00 85 1016.3
20260506143011 18 236 6.4 12.9 0.00 0.05 0.00 86 1016.4
20260506142505 18 239 6.4 9.7 0.00 0.05 0.00 85 1016.4
20260506142004 18 219 3.2 8.0 0.00 0.05 0.00 85 1016.4
20260506141517 18 210 3.2 11.3 0.00 0.05 0.00 85 1016.4
20260506141005 18 206 1.6 11.3 0.00 0.05 0.00 85 1016.4
20260506140512 19 129 3.2 9.7 0.00 0.08 0.00 85 1016.4
20260506140021 19 216 4.8 9.7 0.00 0.08 0.00 85 1016.5
20260506135509 19 220 6.4 11.3 0.00 0.08 0.00 85 1016.4
20260506135009 19 230 6.4 12.9 0.00 0.08 0.00 85 1016.4
20260506134526 19 227 6.4 12.9 0.00 0.08 0.00 85 1016.4
20260506134010 19 227 4.8 11.3 0.00 0.08 0.00 85 1016.5
20260506133512 19 229 4.8 11.3 0.00 0.08 0.00 85 1016.4
20260506133028 19 240 4.8 8.0 0.00 0.08 0.00 85 1016.5
20260506132512 19 233 4.8 8.0 0.00 0.08 0.00 85 1016.6
20260506132015 19 182 1.6 4.8 0.00 0.08 0.00 85 1016.7
20260506131517 19 202 0.0 3.2 0.00 0.08 0.00 85 1016.7
20260506131005 19 202 1.6 3.2 0.00 0.08 0.00 85 1016.8
20260506130511 19 202 0.0 1.6 0.00 0.08 0.00 85 1016.8